Change the Weather History Date:

Wednesday, February 12, 2014

  Actual Average Record
Temperature  
Mean Temperature 35 °F 46 °F  
Max Temperature 37 °F 57 °F 75 °F (1962)
Min Temperature 32 °F 36 °F 12 °F (1981)
Degree Days  
Heating Degree Days 30    
Month to date heating degree days 260  
Since 1 July heating degree days 2228  
Moisture  
Dew Point 31 °F    
Average Humidity 87    
Maximum Humidity 92    
Minimum Humidity 82    
Precipitation  
Precipitation 0.76 in 0.18 in 1.78 in (1966)
Month to date precipitation 2.80 2.10  
Year to date precipitation 5.85 6.62  
Sea Level Pressure  
Sea Level Pressure 29.98 in    
Wind  
Wind Speed 10 mph (ENE)    
Max Wind Speed 21 mph    
Max Gust Speed 26 mph    
T = Trace of Precipitation, MM = Missing Value Source: NWS Daily Summary

Daily Weather History Graph

Daily Weather History Graph

Search for Another Location

Airport or City:

Trip Planner

Search our weather history database for the weather conditions in past years. The results will help you decide how hot, cold, wet, or windy it might be!

Date:

Astronomy

Feb. 12, 2014 Rise Set
Actual Time 6:30 AM CST 5:25 PM CST
Civil Twilight 6:04 AM CST 5:50 PM CST
Nautical Twilight 5:35 AM CST 6:20 PM CST
Astronomical Twilight 5:06 AM CST 6:49 PM CST
Moon 3:40 PM CST (2/12) 4:44 AM CST (2/12)
Length of Visible Light 11h 45m
Length of Day
10h 54m
Waxing Gibbous, 95% of the Moon is Illuminated
Feb 12
Waxing Gibbous
Feb 14
Full
Feb 22
Last Quarter
Mar 1
New
Mar 8
First Quarter

Hourly Weather History & Observations

Time (CST) Temp. Windchill Dew Point Humidity Pressure Visibility Wind Dir Wind Speed Gust Speed Precip Events Conditions
12:07 AM 37.0 °F 29.3 °F 34.0 °F 89% 30.15 in - East 11.5 mph - 0.01 in Rain Light Rain
12:53 AM 37.0 °F 29.3 °F 34.0 °F 89% 30.14 in - East 11.5 mph 21.9 mph 0.05 in Rain Light Rain
12:59 AM 37.0 °F 29.3 °F 34.0 °F 89% 30.11 in - ENE 11.5 mph - 0.00 in Rain Light Rain
1:40 AM 37.0 °F 29.3 °F 34.0 °F 89% 30.13 in - ENE 11.5 mph - 0.03 in Rain Light Rain
1:53 AM 37.0 °F 29.8 °F 34.0 °F 89% 30.17 in - ENE 10.4 mph - 0.05 in Rain Light Rain
2:11 AM 37.0 °F 29.3 °F 34.0 °F 89% 30.13 in - ENE 11.5 mph - 0.02 in Rain Light Rain
2:40 AM 37.0 °F 28.5 °F 34.0 °F 89% 30.11 in - ENE 13.8 mph 19.6 mph 0.04 in Rain Light Rain
2:50 AM 37.4 °F 30.3 °F 33.8 °F 87% 30.10 in - ENE 10.4 mph 21.9 mph 0.05 in Rain Light Rain
2:53 AM 37.0 °F 29.3 °F 34.0 °F 89% 30.13 in - ENE 11.5 mph 21.9 mph 0.05 in Rain Light Rain
3:53 AM 36.0 °F 28.0 °F 33.1 °F 89% 30.13 in - ENE 11.5 mph - 0.08 in Rain Light Rain
4:06 AM 36.0 °F 28.5 °F 33.1 °F 89% 30.10 in - ENE 10.4 mph 21.9 mph 0.03 in Rain Light Rain
4:36 AM 36.0 °F 26.7 °F 32.0 °F 86% 30.10 in - ENE 15.0 mph 21.9 mph 0.08 in Rain Light Rain
4:53 AM 36.0 °F 27.1 °F 32.0 °F 86% 30.14 in - ENE 13.8 mph - 0.11 in Rain Light Rain
5:53 AM 35.1 °F 26.4 °F 30.9 °F 85% 30.13 in - ENE 12.7 mph 25.3 mph 0.10 in Rain Light Rain
6:09 AM 35.1 °F 25.2 °F 30.9 °F 85% 30.10 in - ENE 16.1 mph 24.2 mph 0.02 in Rain Light Rain
6:53 AM 35.1 °F 25.2 °F 30.9 °F 85% 30.11 in - East 16.1 mph 23.0 mph 0.06 in   Overcast
7:40 AM 35.1 °F 25.9 °F 32.0 °F 89% 30.07 in - ENE 13.8 mph 20.7 mph 0.02 in Rain Light Rain
7:53 AM 36.0 °F 28.5 °F 30.9 °F 82% 30.11 in - ENE 10.4 mph 20.7 mph 0.02 in   Overcast
8:17 AM 36.0 °F 28.5 °F 32.0 °F 86% 30.07 in - East 10.4 mph - N/A   Overcast
8:53 AM 36.0 °F 28.5 °F 32.0 °F 86% 30.10 in - ENE 10.4 mph 19.6 mph N/A   Overcast
9:53 AM 35.1 °F 26.4 °F 32.0 °F 89% 30.09 in - ENE 12.7 mph 19.6 mph 0.01 in   Overcast
10:53 AM 35.1 °F 25.5 °F 30.9 °F 85% 30.08 in - East 15.0 mph 23.0 mph N/A   Overcast
11:53 AM 34.0 °F 24.6 °F 28.9 °F 82% 30.04 in - East 13.8 mph 26.5 mph 0.00 in Rain Light Rain
12:21 PM 34.0 °F 26.6 °F 30.0 °F 85% 29.98 in - East 9.2 mph 20.7 mph 0.02 in Rain Light Rain
12:32 PM 33.1 °F 23.9 °F 30.0 °F 89% 29.97 in - ENE 12.7 mph 20.7 mph 0.03 in Rain Light Rain
12:53 PM 33.1 °F 23.4 °F 28.9 °F 85% 29.98 in - East 13.8 mph - 0.05 in Rain Light Rain
1:01 PM 33.1 °F 23.9 °F 30.0 °F 89% 29.93 in - ENE 12.7 mph 19.6 mph 0.02 in Rain Light Rain
1:38 PM 33.1 °F 23.4 °F 28.9 °F 85% 29.92 in - East 13.8 mph 21.9 mph 0.04 in   Overcast
1:53 PM 34.0 °F 26.0 °F 30.0 °F 85% 29.95 in - ENE 10.4 mph 18.4 mph 0.05 in Rain Light Rain
2:04 PM 33.1 °F 24.4 °F 30.0 °F 89% 29.91 in - ENE 11.5 mph - 0.01 in Rain Light Rain
2:25 PM 34.0 °F 26.6 °F 30.9 °F 89% 29.91 in - ENE 9.2 mph - 0.03 in Rain Light Rain
2:35 PM 34.0 °F 26.0 °F 30.9 °F 89% 29.90 in - ENE 10.4 mph - 0.04 in Rain Light Rain
2:53 PM 34.0 °F 25.5 °F 30.9 °F 89% 29.93 in - ENE 11.5 mph - 0.04 in Rain Light Rain
3:25 PM 34.0 °F 26.0 °F 30.9 °F 89% 29.89 in - ENE 10.4 mph - 0.02 in Rain Light Rain
3:49 PM 33.8 °F 26.4 °F 30.2 °F 87% 29.89 in - ENE 9.2 mph - 0.03 in Rain Light Rain
3:53 PM 34.0 °F 26.0 °F 30.9 °F 89% 29.92 in - ENE 10.4 mph - 0.03 in Rain Light Rain
4:12 PM 34.0 °F 26.6 °F 30.9 °F 89% 29.88 in - ENE 9.2 mph - 0.01 in Rain Light Rain
4:53 PM 34.0 °F 26.6 °F 30.0 °F 85% 29.93 in - ENE 9.2 mph - 0.02 in   Overcast
5:00 PM 34.0 °F 26.0 °F 30.0 °F 85% 29.89 in - ENE 10.4 mph - 0.00 in   Overcast
5:15 PM 33.1 °F 25.5 °F 30.0 °F 89% 29.89 in - ENE 9.2 mph - 0.00 in   Overcast
5:53 PM 33.1 °F 26.9 °F 30.0 °F 89% 29.94 in - NE 6.9 mph - 0.01 in Snow Light Snow
5:58 PM 33.1 °F 27.7 °F 30.0 °F 89% 29.90 in - NE 5.8 mph - 0.00 in Snow Light Snow
6:37 PM 33.1 °F 26.9 °F 30.0 °F 89% 29.90 in - ENE 6.9 mph - 0.01 in Snow Light Snow
6:51 PM 33.8 °F 29.6 °F 30.2 °F 87% 29.91 in - NE 4.6 mph - 0.01 in   Overcast
6:53 PM 33.1 °F 28.7 °F 30.9 °F 92% 29.94 in - NE 4.6 mph - 0.01 in   Overcast
7:15 PM 33.1 °F 26.9 °F 30.0 °F 89% 29.89 in - ENE 6.9 mph - N/A   Overcast
7:22 PM 33.1 °F 26.9 °F 30.0 °F 89% 29.90 in - ENE 6.9 mph - 0.00 in Snow Light Snow
7:32 PM 33.1 °F 25.5 °F 30.0 °F 89% 29.90 in - NE 9.2 mph - 0.00 in   Overcast
7:53 PM 33.1 °F 26.1 °F 28.9 °F 85% 29.92 in - NE 8.1 mph - 0.00 in   Overcast
8:53 PM 32.0 °F 25.6 °F 28.0 °F 85% 29.90 in - NE 6.9 mph - 0.01 in Snow Light Snow
9:24 PM 32.0 °F 26.4 °F 28.9 °F 88% 29.87 in - NNE 5.8 mph - 0.01 in Snow Light Snow
9:40 PM 32.0 °F - 28.9 °F 88% 29.87 in - Calm Calm - 0.01 in   Overcast
9:53 PM 32.0 °F 28.7 °F 28.9 °F 88% 29.89 in - NNE 3.5 mph - 0.01 in   Overcast
10:34 PM 33.1 °F 27.7 °F 28.9 °F 85% 29.86 in - North 5.8 mph - N/A   Overcast
10:44 PM 33.1 °F 26.9 °F 28.9 °F 85% 29.86 in - North 6.9 mph - N/A   Overcast
10:53 PM 33.1 °F 26.9 °F 28.9 °F 85% 29.88 in - NNE 6.9 mph - N/A   Overcast
11:02 PM 33.1 °F 27.7 °F 28.9 °F 85% 29.85 in - NNE 5.8 mph - N/A   Overcast
11:24 PM 33.1 °F 28.7 °F 30.0 °F 89% 29.84 in - NNE 4.6 mph - N/A   Overcast
11:34 PM 33.1 °F 30.0 °F 30.0 °F 89% 29.83 in - NNE 3.5 mph - N/A   Overcast
11:53 PM 33.1 °F 30.0 °F 30.0 °F 89% 29.86 in - Variable 3.5 mph - N/A   Overcast